Date,TemperatureHighF,TemperatureAvgF,TemperatureLowF,DewpointHighF,DewpointAvgF,DewpointLowF,HumidityHigh,HumidityAvg,HumidityLow,PressureMaxIn,PressureMinIn,WindSpeedMaxMPH,WindSpeedAvgMPH,GustSpeedMaxMPH,PrecipitationSumIn
2013-1-1,50.0,47.3,43.5,49.7,45.1,28.7,99,93,54,30.33,30.13,5,0,5,1.02
2013-1-2,46.2,38.3,35.3,45.8,37.7,35.0,99,98,95,30.33,30.10,9,0,9,0.00
2013-1-3,37.9,34.3,29.8,35.9,32.5,27.3,99,93,81,30.55,30.30,6,0,6,0.00
2013-1-4,41.1,31.7,25.2,28.4,23.5,16.1,92,74,38,30.62,30.51,13,1,13,0.01
2013-1-5,50.1,36.9,26.0,35.8,25.4,20.4,93,66,31,30.60,30.46,3,0,3,0.03
2013-1-6,43.9,37.9,35.3,37.6,34.9,31.6,98,90,73,30.47,30.31,11,1,11,0.03
2013-1-7,54.6,38.5,27.2,34.2,28.1,23.4,97,71,30,30.59,30.43,9,0,9,0.00
2013-1-8,56.6,45.6,35.5,49.2,39.3,28.4,96,79,62,30.58,30.49,13,0,13,0.00
2013-1-9,61.3,55.9,50.2,56.1,52.2,48.5,97,88,76,30.60,30.52,4,0,4,0.01
2013-1-10,64.4,58.2,54.2,55.5,52.7,49.7,95,82,66,30.59,30.36,12,0,12,0.01
2013-1-11,62.0,58.9,55.0,61.4,58.1,53.6,99,97,95,30.37,30.25,10,0,10,0.36
2013-1-12,68.8,63.2,60.4,62.9,59.6,56.5,99,89,70,30.30,30.17,8,0,8,0.01
2013-1-13,64.8,62.2,59.5,59.8,57.9,54.9,98,86,78,30.23,30.14,13,1,13,0.51
2013-1-14,60.4,54.3,44.9,59.8,53.8,44.6,99,99,96,30.31,30.13,8,0,8,1.14
2013-1-15,60.5,56.9,47.0,60.2,56.7,46.7,100,99,98,30.26,30.08,7,0,7,1.88
2013-1-16,60.3,56.2,52.0,60.0,55.8,51.6,99,99,95,30.14,30.03,8,0,8,0.60
2013-1-17,52.2,43.6,31.0,52.2,43.3,30.4,100,99,94,30.41,29.79,16,0,16,1.28
2013-1-18,49.6,36.6,27.8,34.0,29.2,25.5,98,76,48,30.70,30.41,10,0,10,0.01
2013-1-19,55.6,41.4,32.5,29.9,26.9,21.8,77,58,28,30.65,30.41,6,0,6,0.00
2013-1-20,54.9,43.6,33.5,36.4,30.6,26.1,79,61,41,30.41,30.28,10,1,10,0.00
2013-1-21,46.3,38.1,29.3,32.7,25.3,14.7,88,62,38,30.34,30.25,13,2,13,0.00
2013-1-22,34.2,26.8,20.6,15.0,8.6,3.8,64,47,31,30.52,30.32,14,2,14,0.00
2013-1-23,46.2,34.3,25.8,31.6,18.8,5.8,74,53,41,30.60,30.37,9,0,9,0.00
2013-1-24,43.7,36.4,28.4,38.5,21.0,4.7,84,56,27,30.54,30.32,20,2,20,0.00
2013-1-25,39.4,32.2,26.1,38.9,24.8,8.3,98,77,42,30.56,30.33,13,0,13,0.25
2013-1-26,48.6,38.0,31.2,37.4,31.3,25.2,98,80,44,30.52,30.36,8,0,8,0.00
2013-1-27,50.0,40.3,33.4,34.6,31.1,26.4,82,70,52,30.65,30.50,10,1,10,0.00
2013-1-28,61.7,49.2,40.1,53.6,43.9,30.4,95,82,67,30.61,30.44,9,0,9,0.00
2013-1-29,62.4,57.9,51.1,59.4,55.0,48.4,97,90,84,30.45,30.10,12,0,12,0.06
2013-1-30,62.2,55.3,38.3,61.1,54.0,36.2,99,95,89,30.10,29.67,28,2,28,3.44
2013-1-31,40.2,34.6,29.0,36.1,25.1,20.6,94,69,48,30.31,29.84,17,2,17,0.00